Find Starlink 37103

NORAD ID: 68267 Int'l Des: 2026-055 Owner: SPXS Country: US Constellation: starlink operational
LEOCIRCULAR

Current View

Loading 3D Globe...

About Starlink 37103

Starlink 37103 (NORAD 68267) is a starlink constellation satellite (v2 mini) launched Mar 19, 2026 by SPXS of US. It operates in LEO, CIRCULAR orbit with a mass of 575.00 kg.

About Starlink 37103

Description loading...

Upcoming Passes

Passes for default location (London). Set your location on the main map for personalized predictions.

Altitude History

Loading altitude history...

Two-Line Element Set

1 68267U 26055F 26169.80992822 .00011491 00000-0 35080-3 0 9996
2 68267 53.1561 207.3946 0001971 78.0179 282.1044 15.34390038 15444
Epoch: Jun 18, 2026 • Age: 5 hours

Current Status

Altitude 463.8 km
Velocity 7.64 km/s
Sub-Earth Point 30.26°N, 82.22°E
Launch Date Mar 19, 2026
Age 0.2 years
Type internet

Technical Details

Classification Payload
Mass 575.00 kg
Dry Mass 530.00 kg
Total Mass 575.00 kg
Length 0.30 m
Diameter 4.10 m
Span 29.00 m
Shape Box + pan
Manufacturer SPXS
Bus Type Starlink V2MO
Phase Status In Orbit
Owner/State SPXS/US

Most Searched